Wahoo, NE

5:07 AM CST on January 18, 2018 (GMT -0600)
Wahoo Municipal

Weather History for KAHQ - November, 2012

Change the Weather History Date:

Monday, November 5, 2012

  Actual Average Record
Temperature  
Mean Temperature 41 °F -  
Max Temperature 44 °F 54 °F 73 °F (2016)
Min Temperature 38 °F 30 °F -6 °F (1991)
Degree Days  
Heating Degree Days 24    
Moisture  
Dew Point 37 °F    
Average Humidity 86    
Maximum Humidity 92    
Minimum Humidity 76    
Precipitation  
Precipitation 0.02 in - - ()
Sea Level Pressure  
Sea Level Pressure 30.11 in    
Wind  
Wind Speed 15 mph (NW)    
Max Wind Speed 25 mph    
Max Gust Speed 32 mph    
Visibility 9 miles    
Events      
Averages and records for this station are not official NWS values.
T = Trace of Precipitation, MM = Missing Value Source: NWS Daily Summary

Daily Weather History Graph

Daily Weather History Graph

Search for Another Location

Airport or City:

Trip Planner

Search our weather history database for the weather conditions in past years. The results will help you decide how hot, cold, wet, or windy it might be!

Date:

Astronomy

Nov. 05, 2012 Rise Set
Actual Time 7:03 AM CST 5:16 PM CST
Civil Twilight 6:34 AM CST 5:45 PM CST
Nautical Twilight 6:01 AM CST 6:18 PM CST
Astronomical Twilight 5:28 AM CST 6:50 PM CST
Moon 10:55 PM CST (11/5) 12:23 PM CST (11/5)
Length of Visible Light 11h 11m
Length of Day
10h 13m
Waning Gibbous, 62% of the Moon is Illuminated
Nov 5
Waning Gibbous
Nov 6
Last Quarter
Nov 13
New
Nov 20
First Quarter
Nov 28
Full

Hourly Weather History & Observations

Time (CST) Temp. Windchill Dew Point Humidity Pressure Visibility Wind Dir Wind Speed Gust Speed Precip Events Conditions
12:15 AM 44.6 °F 37.4 °F 41.9 °F 90% 30.04 in 10.0 mi NW 16.1 mph 20.7 mph N/A   Overcast
12:35 AM 43.9 °F 36.8 °F 41.4 °F 91% 30.04 in 10.0 mi NNW 15.0 mph 20.7 mph N/A   Overcast
12:55 AM 43.7 °F 36.9 °F 41.0 °F 90% 30.04 in 10.0 mi NNW 13.8 mph 20.7 mph N/A   Overcast
1:15 AM 43.2 °F 35.9 °F 40.8 °F 91% 30.04 in 10.0 mi NNW 15.0 mph 20.7 mph N/A   Overcast
1:35 AM 43.0 °F 35.7 °F 40.6 °F 91% 30.05 in 7.0 mi NNW 15.0 mph 19.6 mph N/A   Overcast
1:55 AM 43.2 °F 35.9 °F 41.0 °F 92% 30.05 in 7.0 mi NNW 15.0 mph 21.9 mph N/A   Overcast
2:15 AM 43.0 °F 34.8 °F 40.8 °F 92% 30.06 in 7.0 mi NNW 18.4 mph 23.0 mph N/A   Overcast
2:35 AM 42.8 °F 34.5 °F 40.1 °F 90% 30.07 in 7.0 mi NNW 18.4 mph 24.2 mph N/A   Overcast
2:55 AM 42.4 °F 33.3 °F 39.9 °F 91% 30.06 in 7.0 mi NNW 21.9 mph 27.6 mph N/A   Overcast
3:15 AM 41.9 °F 32.8 °F 39.6 °F 91% 30.07 in 7.0 mi NNW 20.7 mph 26.5 mph N/A   Overcast
3:35 AM 41.9 °F 33.1 °F 39.6 °F 91% 30.06 in 7.0 mi NNW 19.6 mph 26.5 mph N/A   Drizzle
3:55 AM 41.5 °F 31.4 °F 39.0 °F 91% 30.06 in 7.0 mi NNW 25.3 mph 29.9 mph N/A   Light Drizzle
4:15 AM 41.4 °F 33.3 °F 38.8 °F 91% 30.07 in 10.0 mi NNW 16.1 mph 24.2 mph N/A   Overcast
4:35 AM 41.0 °F 31.6 °F 37.9 °F 89% 30.07 in 10.0 mi NNW 20.7 mph 27.6 mph N/A   Overcast
4:55 AM 40.6 °F 31.2 °F 37.8 °F 89% 30.08 in 10.0 mi NNW 20.7 mph 32.2 mph N/A   Overcast
5:15 AM 40.5 °F 31.2 °F 37.6 °F 89% 30.08 in 10.0 mi NNW 19.6 mph 31.1 mph N/A   Overcast
5:35 AM 40.3 °F 30.4 °F 37.4 °F 89% 30.09 in 10.0 mi NNW 21.9 mph 27.6 mph N/A   Overcast
5:55 AM 40.1 °F 30.5 °F 36.9 °F 88% 30.09 in 10.0 mi North 20.7 mph 27.6 mph N/A   Overcast
6:15 AM 40.1 °F 31.0 °F 36.9 °F 88% 30.09 in 10.0 mi NNW 18.4 mph 28.8 mph N/A   Overcast
6:35 AM 39.6 °F 29.5 °F 36.1 °F 88% 30.09 in 10.0 mi NNW 21.9 mph 28.8 mph N/A   Overcast
6:55 AM 39.2 °F 28.5 °F 35.6 °F 87% 30.10 in 10.0 mi NNW 24.2 mph 29.9 mph N/A   Overcast
7:15 AM 38.8 °F 28.8 °F 35.6 °F 88% 30.11 in 10.0 mi NNW 20.7 mph 29.9 mph N/A   Overcast
7:35 AM 38.8 °F 28.8 °F 35.6 °F 88% 30.12 in 7.0 mi NNW 20.7 mph 25.3 mph N/A   Overcast
7:55 AM 38.7 °F 29.5 °F 35.6 °F 89% 30.13 in 7.0 mi NNW 17.3 mph 25.3 mph N/A   Overcast
8:15 AM 38.8 °F 29.7 °F 35.8 °F 89% 30.14 in 7.0 mi NNW 17.3 mph - N/A   Overcast
8:35 AM 39.0 °F 29.9 °F 36.1 °F 89% 30.14 in 7.0 mi NNW 17.3 mph - N/A   Overcast
8:55 AM 39.2 °F 30.5 °F 36.5 °F 90% 30.14 in 7.0 mi NNW 16.1 mph 25.3 mph N/A   Overcast
9:15 AM 39.6 °F 30.3 °F 36.9 °F 90% 30.15 in 7.0 mi NNW 18.4 mph 24.2 mph N/A   Overcast
9:35 AM 39.7 °F 31.5 °F 36.7 °F 89% 30.15 in 7.0 mi NNW 15.0 mph - N/A   Overcast
9:55 AM 40.1 °F 31.0 °F 37.2 °F 89% 30.15 in 7.0 mi NNW 18.4 mph 24.2 mph N/A   Overcast
10:15 AM 40.1 °F 32.4 °F 37.2 °F 89% 30.16 in 5.0 mi NNW 13.8 mph 25.3 mph N/A   Overcast
10:35 AM 40.3 °F 31.9 °F 37.2 °F 89% 30.17 in 5.0 mi NNW 16.1 mph 21.9 mph N/A   Overcast
10:55 AM 40.5 °F 31.5 °F 37.4 °F 89% 30.17 in 7.0 mi NNW 18.4 mph 21.9 mph N/A   Overcast
11:15 AM 40.6 °F 31.7 °F 37.2 °F 88% 30.17 in 7.0 mi NNW 18.4 mph - N/A   Overcast
11:35 AM 41.0 °F 32.5 °F 37.6 °F 88% 30.16 in 5.0 mi North 17.3 mph 20.7 mph N/A   Overcast
11:55 AM 41.5 °F 33.5 °F 37.6 °F 86% 30.16 in 5.0 mi North 16.1 mph - N/A   Overcast
12:15 PM 41.9 °F 33.7 °F 37.4 °F 84% 30.15 in 5.0 mi North 17.3 mph - N/A   Haze
12:35 PM 42.1 °F 34.5 °F 37.4 °F 83% 30.15 in 5.0 mi North 15.0 mph - N/A   Haze
12:55 PM 42.1 °F 34.2 °F 37.4 °F 83% 30.15 in 7.0 mi NNW 16.1 mph - N/A   Overcast
1:15 PM 42.3 °F 34.4 °F 37.2 °F 82% 30.15 in 7.0 mi North 16.1 mph - N/A   Overcast
1:35 PM 42.3 °F 35.1 °F 37.0 °F 82% 30.15 in 7.0 mi NNW 13.8 mph 17.3 mph N/A   Overcast
1:55 PM 42.3 °F 35.1 °F 36.9 °F 81% 30.14 in 10.0 mi North 13.8 mph - N/A   Overcast
2:15 PM 42.1 °F 35.7 °F 36.3 °F 80% 30.13 in 10.0 mi NNW 11.5 mph - N/A   Overcast
2:35 PM 42.3 °F 36.3 °F 36.5 °F 80% 30.13 in 10.0 mi NNW 10.4 mph - N/A   Overcast
2:55 PM 41.9 °F 35.9 °F 35.6 °F 78% 30.12 in 10.0 mi NNW 10.4 mph - N/A   Overcast
3:15 PM 41.9 °F 35.4 °F 35.6 °F 78% 30.13 in 5.0 mi NW 11.5 mph - 0.02 in   Haze
3:35 PM 41.9 °F 35.9 °F 35.4 °F 78% 30.14 in 10.0 mi NNW 10.4 mph - 0.02 in   Overcast
3:55 PM 41.9 °F 35.9 °F 34.9 °F 76% 30.14 in 10.0 mi NNW 10.4 mph - 0.02 in   Overcast
4:15 PM 42.3 °F 37.3 °F 35.2 °F 76% 30.13 in 10.0 mi NNW 8.1 mph - N/A   Overcast
4:35 PM 41.9 °F 37.5 °F 35.1 °F 77% 30.12 in 10.0 mi North 6.9 mph - N/A   Overcast
4:55 PM 41.5 °F 37.1 °F 35.1 °F 78% 30.12 in 10.0 mi North 6.9 mph - N/A   Overcast
5:15 PM 41.4 °F 39.4 °F 35.6 °F 80% 30.12 in 10.0 mi NNE 3.5 mph - N/A   Overcast
5:35 PM 41.0 °F - 35.6 °F 81% 30.11 in 10.0 mi Calm Calm - N/A   Overcast
5:55 PM 41.0 °F - 35.8 °F 82% 30.11 in 10.0 mi Calm Calm - N/A   Overcast
6:15 PM 40.6 °F - 36.0 °F 83% 30.12 in 10.0 mi Calm Calm - N/A   Overcast
6:35 PM 41.0 °F 39.0 °F 35.8 °F 82% 30.13 in 10.0 mi WNW 3.5 mph - N/A   Overcast
6:55 PM 40.6 °F - 35.6 °F 82% 30.13 in 10.0 mi Calm Calm - N/A   Overcast
7:15 PM 40.6 °F - 35.4 °F 82% 30.12 in 10.0 mi Calm Calm - N/A   Overcast
7:35 PM 40.3 °F 38.2 °F 35.4 °F 83% 30.12 in 10.0 mi West 3.5 mph - N/A   Overcast
7:55 PM 40.1 °F 38.0 °F 35.2 °F 83% 30.12 in 10.0 mi WSW 3.5 mph - N/A   Overcast
8:15 PM 40.1 °F 38.0 °F 35.4 °F 83% 30.11 in 10.0 mi SW 3.5 mph - N/A   Overcast
8:35 PM 40.1 °F 36.9 °F 35.4 °F 83% 30.11 in 10.0 mi WSW 4.6 mph - N/A   Overcast
8:55 PM 40.1 °F 36.9 °F 35.6 °F 84% 30.11 in 10.0 mi WSW 4.6 mph - N/A   Overcast
9:15 PM 40.3 °F 38.2 °F 35.4 °F 83% 30.10 in 10.0 mi SW 3.5 mph - N/A   Overcast
9:35 PM 40.5 °F 37.3 °F 35.6 °F 83% 30.11 in 10.0 mi SW 4.6 mph - N/A   Overcast
9:55 PM 40.3 °F 36.3 °F 35.6 °F 83% 30.09 in 10.0 mi SSW 5.8 mph - N/A   Overcast
10:15 PM 40.3 °F 35.5 °F 36.0 °F 85% 30.08 in 10.0 mi SSW 6.9 mph - N/A   Overcast
10:35 PM 40.5 °F 35.1 °F 35.8 °F 83% 30.07 in 10.0 mi SSW 8.1 mph - N/A   Overcast
10:55 PM 40.1 °F 35.3 °F 35.8 °F 85% 30.06 in 10.0 mi South 6.9 mph - N/A   Overcast
11:15 PM 38.8 °F 34.6 °F 35.2 °F 87% 30.05 in 10.0 mi South 5.8 mph - N/A   Overcast
11:35 PM 39.2 °F 35.0 °F 35.6 °F 87% 30.05 in 10.0 mi South 5.8 mph - N/A   Overcast
11:55 PM 39.2 °F 35.0 °F 35.8 °F 88% 30.05 in 7.0 mi South 5.8 mph - N/A   Overcast